Hourly Data Report for August 12, 2004

SHERBROOKE A
QUEBEC

45°26'00.000" N
71°41'00.000" W
241.40 m
7028124
71610
YSC

Download Data

Hourly Data (August 2004)
Hourly Data Report for August 12, 2004
TIME
LST
Temp Definition
°C
Dew Point Definition
°C
Rel Hum Definition
%
Precip. Amount Definition
mm

Wind Dir Definition
10's deg

Wind Spd Definition
km/h
Visibility Definition
km
Stn Press Definition
kPa
Hmdx Definition


Wind Chill Definition


Weather Definition


00:00 18.5 16.4 88   25 4 15.0 98.48     Rain
01:00 17.5 16.5 94     0 4.8 98.48      
02:00 17.7 16.4 92   28 4 4.8 98.54     Rain
03:00 17.1 16.2 94   16 9 5.6 98.60     Rain
04:00 16.7 15.4 92   16 4 11.3 98.62      
05:00 16.4 15.3 93   14 6 9.7 98.67      
06:00 16.3 15.2 93   34 6 8.0 98.71     Rain
07:00 17.2 15.8 91     0 19.3 98.73     Cloudy
08:00 17.6 16.1 91     0 16.1 98.76     Rain Showers
09:00 19.5 16.9 85     0 19.3 98.75     Mostly Cloudy
10:00 20.3 18.0 87     0 19.3 98.74 26   Cloudy
11:00 21.6 18.5 83     0 16.1 98.74 28   Cloudy
12:00 21.5 18.7 84   27 9 16.1 98.72 28   Cloudy
13:00 20.3 17.6 84   30 17 16.1 98.70 26   Cloudy
14:00 18.4 17.6 95   28 6 2.4 98.75     Rain Showers,Fog
15:00 18.1 17.3 95     0 2.4 98.86     Moderate Rain Showers,Fog
16:00 18.1 17.3 95     0 3.2 98.87     Rain Showers,Fog
17:00 18.3 17.5 95   12 6 5.6 98.91     Rain
18:00 17.8 16.9 94   13 9 6.4 98.95     Rain
19:00 17.4 16.6 95   10 6 4.8 98.96     Rain
20:00 17.5 16.7 95   11 6 2.4 99.02     Rain
21:00 17.2 16.5 96   7 7 2.7 98.94     Rain
22:00 17.0 16.4 96   6 7 3.2 98.91     Rain
23:00 17.1 16.4 96   5 6 2.7 98.88     Rain

Notes on Data Quality.

Legend

  • E = Estimated
  • M = Missing
  • NA = Not Available*
  • [empty] = Indicates an unobserved value
Date modified: